Regional Weather Roundup
Issued by NWS Huntsville, AL

Current Version | Previous Version | Text Only | Print | Product List | Glossary On
Versions: 1 2 3 4 5 6 7 8 9 10 11 12 13 14 15 16 17 18 19 20 21 22 23 24 25 26 27
000
ASUS44 KHUN 290810
RWRHUN

WEATHER ROUNDUP FOR THE TENNESSEE VALLEY
NATIONAL WEATHER SERVICE HUNTSVILLE AL
300 AM CDT THU JUN 29 2017

ALZ001>004-290900-
NORTHWEST ALABAMA

CITY           SKY/WX    TMP DP  RH WIND       PRES   REMARKS
COURTLAND HCN    N/A     68 N/A N/A CALM        N/A
RUSSELLVILLE     N/A     72 N/A N/A MISG        N/A
SHOALS AIRPORT CLEAR     70  65  84 E3        30.07S
SHOALS TVA RES   N/A     70 N/A N/A MISG        N/A
$$

ALZ005>007-016-290900-
NORTH CENTRAL ALABAMA

CITY           SKY/WX    TMP DP  RH WIND       PRES   REMARKS
CULLMAN AG STN   N/A     66 N/A N/A CALM        N/A
DECATUR AP     CLEAR     70  66  87 SE5       30.08S
HUNTSVILLE AP  PTCLDY    73  68  84 SE3       30.08S
MERIDIANVILLE  PTCLDY    73  63  68 CALM      30.09S
REDSTONE ARSN  MOCLDY    72  65  80 S5        30.07S
VINEMONT AP    FAIR      69  64  84 CALM      30.11S
$$

ALZ008>010-290900-
NORTHEAST ALABAMA

CITY           SKY/WX    TMP DP  RH WIND       PRES   REMARKS
ALBERTVILLE    PTCLDY    72  72 100 CALM      30.10S
FORT PAYNE     PTCLDY    72  61  68 SE6       30.11R
SCOTTSBORO AP  CLOUDY    68  66  94 CALM      30.11S
SCOTTSBORO HCN   N/A     68 N/A N/A MISG        N/A
VALLEY HEAD      N/A     72 N/A N/A MISG        N/A
$$

TNZ076-096-097-290900-
SOUTHEASTERN MIDDLE TENNESSEE

CITY           SKY/WX    TMP DP  RH WIND       PRES   REMARKS
TULLAHOMA      CLEAR     70  61  73 SE3       30.11S
WINCHESTER     CLEAR     72  63  73 S7        30.11S
$$

...SURROUNDING SITES...

CITY           SKY/WX    TMP DP  RH WIND       PRES   REMARKS
ATLANTA        CLOUDY    73  65  75 E7        30.15S
ANNISTON       CLOUDY    76  67  73 MISG      30.10S
BIRMINGHAM     CLOUDY    75  69  81 SE6       30.10S
CHATTANOOGA    CLEAR     71  64  78 CALM      30.13S
CORINTH        FAIR      72  66  83 S5        30.03S
DALTON         PTCLDY    70  64  83 CALM      30.15R
GADSDEN        CLOUDY    73  68  84 CALM      30.10S
GOLDEN TRNGL   CLOUDY    73  66  78 SE7       29.99S
JACKSON TN     CLEAR     73  68  84 S8        30.00F
MEMPHIS        PTCLDY    74  69  85 S10       29.99S
NASHVILLE      CLEAR     71  62  73 SE6       30.06S
OXFORD MS      FAIR      70  66  88 SE3       30.03S
ROME           MOCLDY    69  68  96 CALM      30.12S
SAVANNAH       CLEAR     75  68  78 S9        30.03R
SELMER         CLEAR     72  68  88 S7        30.03S
TUPELO         CLEAR     71  67  87 SE5       30.03R
TUSCALOOSA     CLOUDY    75  72  90 S3        30.05S
$$

...GULF COAST WEATHER...

CITY           SKY/WX    TMP DP  RH WIND       PRES   REMARKS
GULFPORT       CLOUDY    80  76  87 SE10      29.96F
PASCAGOULA     CLOUDY    78  74  87 SE8       29.99F
MOBILE         CLOUDY    76  74  93 E5        30.02F
GULF SHORES    CLOUDY    78  74  90 SE7       30.01S
PENSACOLA      CLOUDY    79  75  87 SE10      30.00F
DESTIN         HVY RAIN  79  79 100 SE8       30.03F
PANAMA CITY    DRIZZLE   76  73  92 CALM      30.04F
APPALACHICOLA  PTCLDY    81  78  91 SE8       30.03F
$$





USA.gov is the U.S. government's official web portal to all federal, state and local government web resources and services.